Regional Weather Roundup
Issued by NWS Goodland, KS

Home | Current Version | Previous Version | Graphics & Text | Print | Product List | Glossary On
Versions: 1 2 3 4 5 6 7 8 9 10 11 12 13 14 15 16 17 18 19 20 21 22 23 24 25 26 27 28 29 30 31 32 33 34 35 36 37 38 39 40 41 42 43 44 45 46 47 48 49 50
692
ASUS43 KGLD 222108
RWRGLD

GOODLAND FORECAST AREA HOURLY WEATHER ROUNDUP
NATIONAL WEATHER SERVICE GOODLAND KS
300 PM MDT WED MAR 22 2017

...OFFICIAL OBSERVATIONS...

CITY           SKY/WX    TMP DP  RH WIND       PRES   REMARKS
GOODLAND KS    CLOUDY    57  37  47 S24       29.99F
HILL CITY KS   CLOUDY    53  32  44 SE14G23   30.10F
IMPERIAL NEB   SUNNY     58  35  42 S25G31    29.98F
MCCOOK NEB     PTSUNNY   54  32  43 S18G26    30.04F
AKRON CO       SUNNY     71  36  27 SE22G29   29.89F
BURLINGTON CO  CLOUDY    60  36  40 S25G37    29.97F
LIMON CO       SUNNY     66  37  34 S23G30    29.94F
$$

...UNOFFICIAL OBSERVATIONS...

CITY           SKY/WX    TMP DP  RH WIND       PRES   REMARKS
LENORA KS        N/A     52  32  46 SE12        N/A
NORTON KS      PTSUNNY   54  27  35 SE17G23   30.07F
SHARON SPRINGS   N/A     59  42  52 S18G25      N/A
TRENTON NEB      N/A     57  32  39 S12         N/A
YUMA CO        FAIR      63  19  19 SE17G25   29.92F
$$




USA.gov is the U.S. government's official web portal to all federal, state and local government web resources and services.